This is the latest recevied weather packets stored in our database for station/object 4S6DRJ-13. If no packets are shown the sender has not sent any weather packets the latest 10 day(s).
| Time | Temp. | Humidity | Pressure | Rain* | Wind** | Luminosity | Snow |
|---|---|---|---|---|---|---|---|
| 1788320059 | 29.44° C | 77% | 1010.6 hPa | 0 mm | 0.45 m/s, 267° | 577 W/m² | - |
| 1788319999 | 29.44° C | 76% | 1010.4 hPa | 0 mm | 1.79 m/s, 204° | 791 W/m² | - |
| 1788319937 | 29.44° C | 76% | 1010.6 hPa | 0 mm | 1.79 m/s, 296° | 809 W/m² | - |
| 1788319876 | 29.44° C | 76% | 1010.6 hPa | 0 mm | 1.79 m/s, 239° | 817 W/m² | - |
| 1788319815 | 30° C | 76% | 1010.5 hPa | 0 mm | 2.68 m/s, 277° | 767 W/m² | - |
| 1788319754 | 30° C | 75% | 1010.5 hPa | 0 mm | 1.79 m/s, 253° | 187 W/m² | - |
| 1788319693 | 30° C | 76% | 1010.6 hPa | 0 mm | 1.34 m/s, 275° | 167 W/m² | - |
| 1788319632 | 30° C | 76% | 1010.5 hPa | 0 mm | 1.79 m/s, 29° | 804 W/m² | - |
| 1788319571 | 30° C | 76% | 1010.5 hPa | 0 mm | 3.58 m/s, 230° | 332 W/m² | - |
| 1788319510 | 30° C | 76% | 1010.6 hPa | 0 mm | 0.45 m/s, 271° | 394 W/m² | - |
| 1788319449 | 30° C | 77% | 1010.5 hPa | 0 mm | 1.34 m/s, 291° | 821 W/m² | - |
| 1788319388 | 29.44° C | 77% | 1010.6 hPa | 0 mm | 2.24 m/s, 185° | 813 W/m² | - |
| 1788319327 | 29.44° C | 78% | 1010.6 hPa | 0 mm | 1.34 m/s, 202° | 812 W/m² | - |
| 1788319266 | 29.44° C | 78% | 1010.5 hPa | 0 mm | 1.79 m/s, 211° | 803 W/m² | - |
| 1788319206 | 29.44° C | 78% | 1010.4 hPa | 0 mm | 0.45 m/s, 219° | 803 W/m² | - |
| 1788319145 | 29.44° C | 78% | 1010.6 hPa | 0 mm | 1.79 m/s, 196° | 781 W/m² | - |
| 1788319083 | 29.44° C | 78% | 1010.5 hPa | 0 mm | 1.79 m/s, 269° | 757 W/m² | - |
| 1788319022 | 29.44° C | 78% | 1010.7 hPa | 0 mm | 1.34 m/s, 202° | 282 W/m² | - |
| 1788318961 | 29.44° C | 78% | 1010.6 hPa | 0 mm | 1.34 m/s, 214° | 778 W/m² | - |
| 1788318900 | 29.44° C | 78% | 1010.5 hPa | 0 mm | 0.89 m/s, 219° | 768 W/m² | - |
| 1788318839 | 29.44° C | 78% | 1010.3 hPa | 0 mm | 0.89 m/s, 281° | 300 W/m² | - |
| 1788318779 | 29.44° C | 77% | 1010.5 hPa | 0 mm | 1.79 m/s, 275° | 201 W/m² | - |
| 1788318717 | 29.44° C | 78% | 1010.3 hPa | 0 mm | 2.68 m/s, 308° | 171 W/m² | - |
| 1788318656 | 29.44° C | 78% | 1010.4 hPa | 0 mm | 3.13 m/s, 216° | 277 W/m² | - |
| 1788318595 | 29.44° C | 78% | 1010.5 hPa | 0 mm | 2.68 m/s, 240° | 284 W/m² | - |
* Rain latest hour (hover to see other rain measurements)
** Current wind speed in m/s (hover to see current wind gust speed)